Starlink 32380

operational
NORAD ID: 61069 Int'l Des: 2024-164 Owner: SPXS Country: US Constellation: starlink
LEOCIRCULAR

Starlink 32380について

説明を読み込み中...

リアルタイム位置

3D地球を読み込み中...

次回通過

高度履歴

Altitude vs Time

uPlot chart will show altitude changes over time

軌道要素

1 61069U 24164V 25305.39050624 .00000356 00000-0 24164-4 0 9998
2 61069 53.1609 327.1086 0001526 95.6283 264.4892 15.30183897 63832
Epoch: Nov 1, 2025 • Age: 23 hours

現在のステータス

高度 491.2 km
速度 7.62 km/s
衛星直下点 -44.65°S, 22.68°E
打ち上げ日 Sep 13, 2024
運用期間 1.1 years
タイプ internet

技術仕様

分類 Payload
質量 730.00 kg
乾燥質量 700.00 kg
総質量 730.00 kg
長さ 0.30 m
直径 4.10 m
スパン 29.00 m
形状 Box + pan
製造者 SPXS
バスタイプ Starlink V2M
フェーズステータス In Orbit
所有者/国 SPXS/US

大規模コンステレーション

Loading constellations...